• In Deutschland
  • Länderverzeichnis
  • Für 7 Tage
  • Wassertemperatur
  • Satellitenkarten
  • Wetterkarte
  • Widgets
  • user-avatar
    Anmelden

    Stündliche Wetter Sölden

    Heute, 25 Juli, Dienstag

    Zeit Temperatur Niederschläge Wind Luftdruck Luftfeuchtigkeit
    00:00 +2°C° 0 mm 2 m/S 578 mmHg 88%
    01:00 +1°C° 0 mm 2 m/S 577 mmHg 86%
    02:00 +1°C° 0,1 mm 2 m/S 577 mmHg 84%
    03:00 +1°C° 0,1 mm 2 m/S 577 mmHg 83%
    04:00 +1°C° 0,1 mm 2 m/S 577 mmHg 82%
    05:00 +2°C° 0,2 mm 2 m/S 578 mmHg 79%
    06:00 +4°C° 0,2 mm 2 m/S 578 mmHg 76%
    07:00 +5°C° 0 mm 2 m/S 579 mmHg 72%
    08:00 +7°C° 0,3 mm 2 m/S 580 mmHg 66%
    09:00 +8°C° 0,3 mm 2 m/S 580 mmHg 60%
    10:00 +9°C° 0,3 mm 2 m/S 581 mmHg 54%
    11:00 +10°C° 0,4 mm 2 m/S 581 mmHg 53%
    12:00 +12°C° 0,4 mm 2 m/S 581 mmHg 52%
    13:00 +12°C° 0 mm 2 m/S 581 mmHg 53%
    14:00 +10°C° 0,5 mm 2 m/S 581 mmHg 53%
    15:00 +10°C° 0,5 mm 2 m/S 581 mmHg 54%
    16:00 +10°C° 0,5 mm 2 m/S 580 mmHg 54%
    17:00 +9°C° 0,3 mm 2 m/S 580 mmHg 59%
    18:00 +8°C° 0,3 mm 2 m/S 580 mmHg 64%
    19:00 +8°C° 0,3 mm 1 m/S 579 mmHg 69%
    20:00 +5°C° 0,2 mm 2 m/S 579 mmHg 73%
    21:00 +4°C° 0,2 mm 2 m/S 578 mmHg 76%
    22:00 +3°C° 0,2 mm 2 m/S 578 mmHg 80%
    23:00 +3°C° 0,1 mm 2 m/S 577 mmHg 81%

    Morgen, 26 Juli, Mittwoch

    Zeit Temperatur Niederschläge Wind Luftdruck Luftfeuchtigkeit
    00:00 +2°C° 0,1 mm 2 m/S 577 mmHg 82%
    01:00 +2°C° 0,1 mm 2 m/S 577 mmHg 83%
    02:00 +2°C° 0 mm 2 m/S 577 mmHg 83%
    03:00 +1°C° 0 mm 2 m/S 577 mmHg 83%
    04:00 +1°C° 0 mm 2 m/S 577 mmHg 83%
    05:00 +2°C° 0,2 mm 2 m/S 577 mmHg 80%
    06:00 +3°C° 0,2 mm 2 m/S 578 mmHg 77%
    07:00 +4°C° 0,2 mm 2 m/S 578 mmHg 74%
    08:00 +6°C° 0,2 mm 2 m/S 579 mmHg 68%
    09:00 +7°C° 0,2 mm 2 m/S 580 mmHg 62%
    10:00 +9°C° 0,2 mm 2 m/S 581 mmHg 56%
    11:00 +10°C° 0,1 mm 2 m/S 581 mmHg 55%
    12:00 +10°C° 0,1 mm 2 m/S 582 mmHg 54%
    13:00 +12°C° 0,1 mm 2 m/S 582 mmHg 53%
    14:00 +10°C° 0,3 mm 2 m/S 582 mmHg 55%
    15:00 +10°C° 0,3 mm 2 m/S 582 mmHg 56%
    16:00 +10°C° 0,3 mm 2 m/S 581 mmHg 58%
    17:00 +9°C° 0,2 mm 2 m/S 581 mmHg 62%
    18:00 +8°C° 0,2 mm 2 m/S 581 mmHg 67%
    19:00 +7°C° 0,2 mm 2 m/S 581 mmHg 72%
    20:00 +5°C° 0,1 mm 2 m/S 581 mmHg 76%
    21:00 +4°C° 0,1 mm 2 m/S 580 mmHg 80%
    22:00 +3°C° 0,1 mm 2 m/S 580 mmHg 84%
    23:00 +2°C° 0 mm 2 m/S 580 mmHg 84%

    übermorgen, 27 Juli, Donnerstag

    Zeit Temperatur Niederschläge Wind Luftdruck Luftfeuchtigkeit
    00:00 +2°C° 0 mm 2 m/S 580 mmHg 84%
    01:00 +2°C° 0 mm 2 m/S 580 mmHg 85%
    02:00 +2°C° 0 mm 2 m/S 580 mmHg 84%
    03:00 +1°C° 0 mm 2 m/S 580 mmHg 84%
    04:00 +1°C° 0 mm 2 m/S 580 mmHg 83%
    05:00 +3°C° 0 mm 2 m/S 580 mmHg 76%
    06:00 +5°C° 0 mm 1 m/S 581 mmHg 69%
    07:00 +7°C° 0 mm 1 m/S 582 mmHg 62%
    08:00 +9°C° 0 mm 1 m/S 583 mmHg 55%
    09:00 +12°C° 0 mm 1 m/S 584 mmHg 47%
    10:00 +14°C° 0 mm 1 m/S 585 mmHg 40%
    11:00 +14°C° 0,1 mm 1 m/S 586 mmHg 41%
    12:00 +15°C° 0,1 mm 1 m/S 586 mmHg 41%
    13:00 +16°C° 0,1 mm 1 m/S 586 mmHg 41%
    14:00 +16°C° 0,1 mm 1 m/S 586 mmHg 44%
    15:00 +15°C° 0,1 mm 2 m/S 586 mmHg 47%
    16:00 +15°C° 0,1 mm 2 m/S 585 mmHg 50%
    17:00 +14°C° 0 mm 2 m/S 585 mmHg 58%
    18:00 +13°C° 0 mm 1 m/S 584 mmHg 66%
    19:00 +12°C° 0 mm 1 m/S 584 mmHg 73%
    20:00 +10°C° 0,1 mm 1 m/S 583 mmHg 78%
    21:00 +8°C° 0,1 mm 1 m/S 583 mmHg 82%
    22:00 +7°C° 0,1 mm 1 m/S 582 mmHg 87%
    23:00 +7°C° 0 mm 1 m/S 582 mmHg 87%

    28 Juli, Freitag

    Zeit Temperatur Niederschläge Wind Luftdruck Luftfeuchtigkeit
    00:00 +6°C° 0 mm 1 m/S 582 mmHg 88%
    01:00 +6°C° 0 mm 1 m/S 582 mmHg 88%
    02:00 +6°C° 0 mm 1 m/S 582 mmHg 88%
    03:00 +5°C° 0 mm 1 m/S 582 mmHg 87%
    04:00 +5°C° 0 mm 1 m/S 582 mmHg 87%
    05:00 +7°C° 0 mm 1 m/S 583 mmHg 83%
    06:00 +8°C° 0 mm 1 m/S 584 mmHg 78%
    07:00 +10°C° 0 mm 1 m/S 585 mmHg 74%
    08:00 +12°C° 0 mm 1 m/S 586 mmHg 67%
    09:00 +14°C° 0 mm 1 m/S 587 mmHg 61%
    10:00 +16°C° 0 mm 1 m/S 588 mmHg 54%
    11:00 +16°C° 0,1 mm 1 m/S 588 mmHg 53%
    12:00 +17°C° 0,1 mm 2 m/S 588 mmHg 52%
    13:00 +17°C° 0,1 mm 2 m/S 588 mmHg 51%
    14:00 +17°C° 0,2 mm 2 m/S 588 mmHg 53%
    15:00 +17°C° 0,2 mm 2 m/S 588 mmHg 55%
    16:00 +17°C° 0,2 mm 2 m/S 588 mmHg 57%
    17:00 +16°C° 0,1 mm 2 m/S 588 mmHg 64%
    18:00 +14°C° 0,1 mm 2 m/S 587 mmHg 72%
    19:00 +13°C° 0,1 mm 1 m/S 587 mmHg 79%
    20:00 +12°C° 0 mm 1 m/S 587 mmHg 83%
    21:00 +10°C° 0 mm 1 m/S 586 mmHg 88%
    22:00 +8°C° 0 mm 0 m/S 586 mmHg 93%
    23:00 +8°C° 0 mm 1 m/S 586 mmHg 93%

    29 Juli, Samstag

    Zeit Temperatur Niederschläge Wind Luftdruck Luftfeuchtigkeit
    00:00 +8°C° 0 mm 1 m/S 586 mmHg 93%
    01:00 +8°C° 0 mm 1 m/S 586 mmHg 94%
    02:00 +8°C° 0 mm 1 m/S 586 mmHg 94%
    03:00 +8°C° 0 mm 1 m/S 586 mmHg 94%
    04:00 +8°C° 0 mm 1 m/S 586 mmHg 95%
    05:00 +9°C° 0 mm 1 m/S 586 mmHg 91%
    06:00 +10°C° 0 mm 1 m/S 587 mmHg 88%
    07:00 +12°C° 0 mm 1 m/S 588 mmHg 85%
    08:00 +13°C° 0,1 mm 1 m/S 588 mmHg 80%
    09:00 +14°C° 0,1 mm 1 m/S 589 mmHg 74%
    10:00 +15°C° 0,1 mm 2 m/S 590 mmHg 69%
    11:00 +15°C° 0,5 mm 2 m/S 590 mmHg 69%
    12:00 +15°C° 0,5 mm 2 m/S 590 mmHg 69%
    13:00 +16°C° 0,5 mm 2 m/S 590 mmHg 69%
    14:00 +15°C° 1 mm 2 m/S 589 mmHg 72%
    15:00 +15°C° 1 mm 2 m/S 589 mmHg 75%
    16:00 +15°C° 1 mm 2 m/S 589 mmHg 78%
    17:00 +14°C° 1,7 mm 2 m/S 589 mmHg 82%
    18:00 +13°C° 1,7 mm 1 m/S 588 mmHg 86%
    19:00 +12°C° 1,7 mm 1 m/S 588 mmHg 90%
    20:00 +12°C° 1 mm 1 m/S 588 mmHg 92%
    21:00 +11°C° 1 mm 1 m/S 588 mmHg 94%
    22:00 +9°C° 1 mm 0 m/S 587 mmHg 96%
    23:00 +9°C° 0,5 mm 0 m/S 587 mmHg 96%

    30 Juli, Sonntag

    Zeit Temperatur Niederschläge Wind Luftdruck Luftfeuchtigkeit
    00:00 +10°C° 0,5 mm 1 m/S 587 mmHg 96%
    01:00 +9°C° 0,5 mm 1 m/S 587 mmHg 96%
    02:00 +9°C° 0,6 mm 1 m/S 587 mmHg 96%
    03:00 +9°C° 0,6 mm 1 m/S 586 mmHg 95%
    04:00 +9°C° 0,6 mm 1 m/S 586 mmHg 95%
    05:00 +10°C° 0,2 mm 1 m/S 587 mmHg 93%
    06:00 +11°C° 0,2 mm 1 m/S 587 mmHg 90%
    07:00 +12°C° 0,2 mm 1 m/S 588 mmHg 87%
    08:00 +14°C° 0,2 mm 1 m/S 589 mmHg 79%
    09:00 +15°C° 0,2 mm 1 m/S 589 mmHg 70%
    10:00 +18°C° 0,2 mm 1 m/S 590 mmHg 62%
    11:00 +18°C° 0,8 mm 1 m/S 590 mmHg 60%
    12:00 +19°C° 0,8 mm 1 m/S 590 mmHg 58%
    13:00 +20°C° 0,8 mm 1 m/S 590 mmHg 56%
    14:00 +19°C° 1 mm 1 m/S 590 mmHg 56%
    15:00 +19°C° 1 mm 1 m/S 590 mmHg 57%
    16:00 +19°C° 1 mm 1 m/S 590 mmHg 57%
    17:00 +18°C° 0,9 mm 1 m/S 589 mmHg 65%
    18:00 +16°C° 0,9 mm 1 m/S 589 mmHg 72%
    19:00 +14°C° 0,9 mm 1 m/S 588 mmHg 80%
    20:00 +13°C° 0,3 mm 1 m/S 588 mmHg 84%
    21:00 +11°C° 0,3 mm 1 m/S 588 mmHg 88%
    22:00 +10°C° 0,3 mm 1 m/S 587 mmHg 92%
    23:00 +10°C° 0 mm 1 m/S 587 mmHg 92%
    Mehr zeigen